#timestamp,LO_Frequency,Hit,StdDev 
1692824415.4,286046999.8,N
1692824435.2,286046998.1,N
1692824455.0,286047002.5,N
1692824455.9,286047002.5,N
1692824475.8,286047002.8,N
1692824495.6,286047002.8,N
1692824515.4,286047001.1,N
1692824535.3,286046996.6,N
1692824555.1,286046996.6,N
1692824575.8,286046998.8,N
1692824595.7,286046999.0,N
1692824615.5,286046999.3,N
1692824635.3,286046998.5,N
1692824655.2,286047001.1,N
1692824675.9,286046999.9,N
1692824695.7,286047000.6,N
1692824715.6,286047001.2,N
1692824735.4,286046998.1,N
1692824755.2,286047000.6,N
1692824775.1,286046998.5,N
1692824776.0,286046998.5,N
1692824795.8,286046999.8,N
1692824815.6,286047002.0,N
1692824835.5,286047001.1,N
1692824855.3,286046998.3,N
1692824875.1,286046998.2,N
1692824895.9,286046998.6,N
1692824915.7,286046999.5,N
1692824935.5,286046999.3,N
1692824955.4,286046998.2,N
1692824975.2,286047000.7,N
1692824995.0,286046998.4,N
1692824995.9,286046998.4,N
1692825015.8,286047001.1,N
1692825035.6,286046999.8,N
1692825055.4,286047002.5,N
1692825075.3,286046999.9,N
1692825095.1,286047000.8,N
1692825115.8,286046999.8,N
1692825135.7,286047000.2,N
1692825155.5,286047000.7,N
1692825175.3,286046998.3,N
1692825195.2,286046998.9,N
1692825215.0,286046999.4,N
1692825215.9,286046999.4,N
1692825235.7,286046998.2,N
1692825255.6,286047001.1,N
1692825275.4,286046998.2,N
1692825295.2,286046999.2,N
1692825315.1,286046999.2,N
1692825316.0,286046999.2,N
1692825335.8,286046999.1,N
1692825355.6,286046996.9,N
1692825375.5,286046996.9,N
1692825395.3,286046999.6,N
1692825415.1,286046996.7,N
1692825435.9,286046996.8,N
1692825455.7,286046996.8,N
1692825475.5,286046999.1,N
1692825495.4,286046998.8,N
1692825515.2,286047001.2,N
1692825535.0,286046998.8,N
1692825535.9,286046998.8,N
1692825555.8,286046998.4,N
1692825575.6,286046999.1,N
1692825595.4,286046999.5,N
1692825615.3,286046999.6,N
1692825635.1,286046996.5,N
1692825655.8,286046999.5,N
1692825675.7,286046996.9,N
1692825695.5,286046999.4,N
1692825715.3,286046999.6,N
1692825735.2,286046999.0,N
1692825755.0,286047001.1,N
1692825755.9,286047001.1,N
1692825775.8,286047001.2,N
1692825795.6,286046998.2,N
1692825815.4,286047000.9,N
1692825835.3,286046998.2,N
1692825855.1,286047000.8,N
1692825856.0,286047000.8,N
1692825875.8,286047003.9,N
1692825895.7,286047003.9,N
1692825915.5,286047004.2,N
1692825935.3,286047002.2,N
1692825955.2,286047002.4,N
1692825975.9,286047000.6,N
1692825995.7,286046999.9,N
1692826015.6,286047002.7,N
1692826035.4,286047000.6,N
1692826055.2,286046999.9,N
1692826075.1,286047000.8,N
1692826076.0,286047000.8,N
1692826095.8,286047000.8,N
1692826115.6,286046998.6,N
1692826135.5,286046998.1,N
1692826155.3,286046998.4,N
1692826175.1,286046998.4,N
1692826195.9,286047001.2,N
1692826215.7,286047000.8,N
1692826235.5,286047001.2,N
1692826255.4,286047000.3,N
1692826275.2,286047000.9,N
1692826295.0,286047000.0,N
1692826295.9,286047000.0,N
1692826315.8,286047000.5,N
1692826335.6,286046998.2,N
1692826355.4,286046999.5,N
1692826375.3,286046999.5,N
1692826395.1,286046999.2,N
1692826396.0,286046999.2,N
1692826415.8,286046998.3,N
1692826435.7,286046998.7,N
1692826455.5,286047001.2,N
1692826475.3,286047000.6,N
1692826495.2,286047001.0,N
1692826515.9,286047000.3,N
1692826535.7,286046999.7,N
1692826555.6,286047000.6,N
1692826575.4,286047000.7,N
1692826595.2,286047001.2,N
1692826615.1,286047000.4,N
1692826616.0,286047000.4,N
1692826635.8,286047000.8,N
1692826655.6,286047002.8,N
1692826675.5,286047000.7,N
1692826695.3,286046999.9,N
1692826715.1,286047002.7,N
1692826735.9,286046999.9,N
1692826755.7,286047042.3,Y
1692826775.5,286047025.7,P
1692826795.4,286047017.8,N
1692826815.2,286047011.0,N
1692826835.0,286047010.7,N
1692826835.9,286047010.7,N
1692826855.8,286047006.8,N
1692826875.6,286047005.8,N
1692826895.4,286047003.0,N
1692826915.3,286047004.4,N
1692826935.1,286047002.7,N
1692826955.8,286047002.4,N
1692826975.7,286046999.7,N
1692826995.5,286047001.2,N
1692827015.3,286047000.7,N
1692827035.2,286046998.7,N
1692827055.9,286046999.4,N
1692827075.7,286046999.5,N
1692827095.6,286046999.6,N
1692827115.4,286046997.7,N
1692827135.2,286046997.3,N
1692827155.1,286046997.7,N
1692827156.0,286046997.7,N
1692827175.8,286046996.1,N
1692827195.6,286046996.3,N
1692827215.5,286046996.1,N
1692827235.3,286046996.1,N
1692827255.1,286046996.3,N
1692827275.9,286046996.4,N
1692827295.7,286046993.7,N
1692827315.5,286046996.4,N
1692827335.4,286046994.0,N
1692827355.2,286046994.6,N
1692827375.0,286046994.8,N
1692827375.9,286046994.8,N
1692827395.8,286046992.4,N
1692827415.6,286046992.0,N
1692827435.4,286046990.3,N
1692827455.3,286046992.7,N
1692827475.1,286046992.7,N
1692827495.8,286046992.8,N
1692827515.7,286046993.0,N
1692827535.5,286046990.7,Y
1692827555.3,286046996.2,P
1692827575.2,286046995.0,P
1692827595.0,286046998.0,P
1692827595.9,286046998.0,N
1692827615.7,286046995.8,Y
1692827635.6,286046998.3,P
1692827655.4,286046998.4,N
1692827675.2,286046999.4,N
1692827695.1,286046999.1,N
1692827696.0,286046999.1,N
1692827715.8,286046999.1,N
1692827735.6,286046999.4,N
1692827755.5,286046999.1,N
1692827775.3,286046999.2,N
1692827795.1,286046999.8,N
1692827815.9,286047002.7,Y
1692827835.7,286047002.7,P
1692827855.5,286047000.3,N
1692827875.4,286047002.0,N
1692827895.2,286047000.2,N
1692827915.0,286047000.0,N
1692827915.9,286047000.0,N
1692827935.8,286047000.6,N
1692827955.6,286047000.9,N
1692827975.4,286047001.2,N
1692827995.3,286047000.6,N
